• In Hungary
  • List of Countries
  • For 7 days
  • Water Temperature
  • Satellite Maps
  • Weather Map
  • News
  • Weather Widgets
  • user-avatar
    Login

    Hourly Weather Mumbai

    Today, 20 September, Wednesday

    Time Temperature Precipitation Wind Pressure Humidity
    00:00 +28°C° 1.6 mm 8 mps 753 mmHg 93%
    01:00 +28°C° 1.6 mm 8 mps 753 mmHg 94%
    02:00 +28°C° 1.6 mm 8 mps 753 mmHg 94%
    03:00 +28°C° 1.5 mm 8 mps 753 mmHg 94%
    04:00 +28°C° 1.5 mm 7 mps 753 mmHg 95%
    05:00 +27°C° 0 mm 5 mps 753 mmHg 93%
    06:00 +27°C° 0.7 mm 5 mps 753 mmHg 92%
    07:00 +28°C° 0.7 mm 5 mps 754 mmHg 91%
    08:00 +28°C° 0.7 mm 5 mps 754 mmHg 91%
    09:00 +28°C° 0.8 mm 5 mps 754 mmHg 89%
    10:00 +29°C° 0.8 mm 6 mps 754 mmHg 88%
    11:00 +29°C° 0.8 mm 6 mps 754 mmHg 87%
    12:00 +29°C° 0.6 mm 6 mps 754 mmHg 88%
    13:00 +29°C° 0.6 mm 6 mps 754 mmHg 89%
    14:00 +28°C° 0.6 mm 6 mps 753 mmHg 90%
    15:00 +28°C° 0.8 mm 5 mps 753 mmHg 91%
    16:00 +28°C° 0.8 mm 5 mps 753 mmHg 92%
    17:00 +27°C° 0.8 mm 4 mps 753 mmHg 93%
    18:00 +27°C° 0.7 mm 4 mps 753 mmHg 93%
    19:00 +27°C° 0.7 mm 3 mps 754 mmHg 93%
    20:00 +27°C° 0.7 mm 3 mps 754 mmHg 93%
    21:00 +27°C° 0.5 mm 3 mps 754 mmHg 93%
    22:00 +27°C° 0.5 mm 3 mps 754 mmHg 93%
    23:00 +27°C° 0.5 mm 3 mps 754 mmHg 94%

    Tomorrow, 21 September, Thursday

    Time Temperature Precipitation Wind Pressure Humidity
    00:00 +27°C° 0.2 mm 3 mps 754 mmHg 94%
    01:00 +26°C° 0.2 mm 3 mps 754 mmHg 94%
    02:00 +26°C° 0.2 mm 3 mps 753 mmHg 94%
    03:00 +26°C° 0.1 mm 3 mps 753 mmHg 94%
    04:00 +26°C° 0.1 mm 3 mps 753 mmHg 94%
    05:00 +26°C° 0.1 mm 3 mps 753 mmHg 94%
    06:00 +27°C° 0.2 mm 3 mps 754 mmHg 93%
    07:00 +27°C° 0.2 mm 3 mps 754 mmHg 92%
    08:00 +27°C° 0.2 mm 3 mps 755 mmHg 91%
    09:00 +28°C° 0.3 mm 3 mps 755 mmHg 88%
    10:00 +29°C° 0.3 mm 3 mps 755 mmHg 85%
    11:00 +30°C° 0.3 mm 4 mps 755 mmHg 83%
    12:00 +30°C° 0.3 mm 4 mps 754 mmHg 82%
    13:00 +30°C° 0.3 mm 4 mps 754 mmHg 81%
    14:00 +32°C° 0.3 mm 5 mps 753 mmHg 80%
    15:00 +30°C° 0.4 mm 5 mps 753 mmHg 82%
    16:00 +30°C° 0.4 mm 4 mps 753 mmHg 85%
    17:00 +29°C° 0.4 mm 4 mps 753 mmHg 87%
    18:00 +28°C° 0.2 mm 4 mps 754 mmHg 89%
    19:00 +28°C° 0.2 mm 3 mps 754 mmHg 90%
    20:00 +27°C° 0.2 mm 3 mps 755 mmHg 91%
    21:00 +27°C° 0.1 mm 3 mps 755 mmHg 91%
    22:00 +27°C° 0.1 mm 2 mps 755 mmHg 92%
    23:00 +27°C° 0.1 mm 2 mps 755 mmHg 92%

    Day after tomorrow, 22 September, Friday

    Time Temperature Precipitation Wind Pressure Humidity
    00:00 +27°C° 0.1 mm 2 mps 755 mmHg 93%
    01:00 +27°C° 0.1 mm 2 mps 755 mmHg 93%
    02:00 +26°C° 0.1 mm 2 mps 754 mmHg 93%
    03:00 +26°C° 0.1 mm 2 mps 754 mmHg 94%
    04:00 +26°C° 0.1 mm 2 mps 754 mmHg 94%
    05:00 +26°C° 0.1 mm 2 mps 754 mmHg 94%
    06:00 +27°C° 0.1 mm 3 mps 755 mmHg 93%
    07:00 +27°C° 0.1 mm 3 mps 756 mmHg 91%
    08:00 +28°C° 0.1 mm 3 mps 756 mmHg 89%
    09:00 +29°C° 0 mm 3 mps 756 mmHg 84%
    10:00 +30°C° 0 mm 3 mps 756 mmHg 78%
    11:00 +31°C° 0 mm 3 mps 756 mmHg 72%
    12:00 +33°C° 0 mm 4 mps 756 mmHg 72%
    13:00 +33°C° 0 mm 4 mps 755 mmHg 71%
    14:00 +33°C° 0 mm 4 mps 755 mmHg 71%
    15:00 +32°C° 0 mm 4 mps 755 mmHg 74%
    16:00 +32°C° 0 mm 4 mps 755 mmHg 77%
    17:00 +30°C° 0 mm 3 mps 755 mmHg 79%
    18:00 +29°C° 0 mm 3 mps 755 mmHg 82%
    19:00 +28°C° 0 mm 2 mps 756 mmHg 85%
    20:00 +27°C° 0 mm 2 mps 756 mmHg 88%
    21:00 +27°C° 0 mm 1 mps 757 mmHg 89%
    22:00 +27°C° 0 mm 1 mps 757 mmHg 89%
    23:00 +26°C° 0 mm 1 mps 757 mmHg 90%

    23 September, Saturday

    Time Temperature Precipitation Wind Pressure Humidity
    00:00 +26°C° 0 mm 1 mps 756 mmHg 91%
    01:00 +26°C° 0 mm 1 mps 756 mmHg 91%
    02:00 +26°C° 0 mm 1 mps 756 mmHg 92%
    03:00 +26°C° 0 mm 1 mps 756 mmHg 92%
    04:00 +25°C° 0 mm 2 mps 756 mmHg 92%
    05:00 +25°C° 0 mm 2 mps 756 mmHg 92%
    06:00 +26°C° 0 mm 2 mps 756 mmHg 90%
    07:00 +27°C° 0 mm 2 mps 757 mmHg 87%
    08:00 +28°C° 0 mm 2 mps 758 mmHg 85%
    09:00 +29°C° 0 mm 2 mps 758 mmHg 80%
    10:00 +30°C° 0 mm 2 mps 758 mmHg 75%
    11:00 +32°C° 0 mm 2 mps 757 mmHg 70%
    12:00 +32°C° 0 mm 2 mps 757 mmHg 70%
    13:00 +32°C° 0 mm 2 mps 756 mmHg 70%
    14:00 +32°C° 0 mm 2 mps 756 mmHg 70%
    15:00 +31°C° 0 mm 2 mps 756 mmHg 73%
    16:00 +31°C° 0 mm 2 mps 756 mmHg 76%
    17:00 +30°C° 0 mm 2 mps 756 mmHg 78%
    18:00 +29°C° 0 mm 2 mps 756 mmHg 81%
    19:00 +28°C° 0 mm 2 mps 757 mmHg 84%
    20:00 +27°C° 0 mm 1 mps 757 mmHg 87%
    21:00 +27°C° 0 mm 1 mps 757 mmHg 88%
    22:00 +27°C° 0 mm 1 mps 757 mmHg 89%
    23:00 +26°C° 0 mm 1 mps 758 mmHg 90%

    24 September, Sunday

    Time Temperature Precipitation Wind Pressure Humidity
    00:00 +26°C° 0 mm 1 mps 757 mmHg 91%
    01:00 +26°C° 0 mm 1 mps 757 mmHg 92%
    02:00 +26°C° 0 mm 1 mps 756 mmHg 93%
    03:00 +26°C° 0 mm 1 mps 756 mmHg 93%
    04:00 +25°C° 0 mm 1 mps 756 mmHg 94%
    05:00 +25°C° 0 mm 1 mps 756 mmHg 94%
    06:00 +26°C° 0 mm 1 mps 757 mmHg 91%
    07:00 +25°C° 0 mm 0 mps 757 mmHg 88%
    08:00 +26°C° 0 mm 0 mps 758 mmHg 85%
    09:00 +29°C° 0 mm 1 mps 758 mmHg 79%
    10:00 +31°C° 0 mm 1 mps 757 mmHg 73%
    11:00 +32°C° 0 mm 1 mps 757 mmHg 68%
    12:00 +32°C° 0 mm 2 mps 757 mmHg 67%
    13:00 +33°C° 0 mm 3 mps 756 mmHg 66%
    14:00 +33°C° 0 mm 3 mps 755 mmHg 66%
    15:00 +33°C° 0 mm 3 mps 755 mmHg 70%
    16:00 +31°C° 0 mm 3 mps 755 mmHg 74%
    17:00 +30°C° 0 mm 3 mps 755 mmHg 78%
    18:00 +29°C° 0 mm 3 mps 756 mmHg 80%
    19:00 +28°C° 0 mm 2 mps 756 mmHg 83%
    20:00 +27°C° 0 mm 2 mps 757 mmHg 86%
    21:00 +27°C° 0 mm 2 mps 757 mmHg 87%
    22:00 +27°C° 0 mm 2 mps 757 mmHg 89%
    23:00 +27°C° 0 mm 1 mps 757 mmHg 90%

    25 September, Monday

    Time Temperature Precipitation Wind Pressure Humidity
    00:00 +26°C° 0 mm 1 mps 756 mmHg 91%
    01:00 +26°C° 0 mm 1 mps 756 mmHg 92%
    02:00 +26°C° 0 mm 1 mps 755 mmHg 93%
    03:00 +26°C° 0 mm 1 mps 755 mmHg 93%
    04:00 +26°C° 0 mm 1 mps 755 mmHg 93%
    05:00 +26°C° 0 mm 1 mps 755 mmHg 94%
    06:00 +27°C° 0 mm 1 mps 756 mmHg 91%
    07:00 +28°C° 0 mm 1 mps 756 mmHg 88%
    08:00 +29°C° 0 mm 1 mps 757 mmHg 84%
    09:00 +30°C° 0 mm 1 mps 757 mmHg 80%
    10:00 +31°C° 0 mm 2 mps 757 mmHg 75%
    11:00 +32°C° 0 mm 2 mps 756 mmHg 70%
    12:00 +33°C° 0 mm 3 mps 756 mmHg 69%
    13:00 +33°C° 0 mm 3 mps 755 mmHg 69%
    14:00 +33°C° 0 mm 4 mps 754 mmHg 68%
    15:00 +32°C° 0 mm 4 mps 755 mmHg 72%
    16:00 +32°C° 0 mm 4 mps 755 mmHg 75%
    17:00 +30°C° 0 mm 4 mps 755 mmHg 79%
    18:00 +29°C° 0 mm 3 mps 755 mmHg 81%
    19:00 +28°C° 0 mm 2 mps 756 mmHg 83%
    20:00 +27°C° 0 mm 2 mps 756 mmHg 85%
    21:00 +27°C° 0 mm 2 mps 756 mmHg 86%
    22:00 +27°C° 0 mm 1 mps 756 mmHg 87%
    23:00 +26°C° 0 mm 1 mps 756 mmHg 88%
    Show more